Regional Weather Roundup
Issued by NWS

Home | Current Version | Previous Version | Text Only | Print | Product List | Glossary Off
Versions: 1 2 3 4 5 6 7 8 9 10 11 12 13 14 15 16 17 18 19 20 21 22 23 24 25 26 27 28 29 30 31 32 33 34 35 36 37 38 39 40 41 42 43 44 45 46 47 48 49 50

000
ASUS43 KLMK 090602
RWRKY
KENTUCKY REGIONAL WEATHER ROUNDUP
NATIONAL WEATHER SERVICE LOUISVILLE KY
100 AM EST TUE FEB 09 2016

NOTE "FAIR" INDICATES FEW OR NO CLOUDS BELOW 12,000 FEET
WITH NO SIGNIFICANT WEATHER AND/OR OBSTRUCTIONS TO VISIBILITY.

KYZ001>023-026-027-061>063-070>075-090700-
WESTERN AND SOUTH CENTRAL KENTUCKY

CITY           SKY/WX    TMP DP  RH WIND       PRES   REMARKS
PADUCAH        CLOUDY    27  19  72 NW9       29.90F WCI  18
HENDERSON      CLOUDY    21  18  86 W10       29.89S WCI  10
OWENSBORO      CLOUDY    23  15  71 NW13      29.88S WCI  11
HOPKINSVILLE   CLOUDY    26  18  72 NW5       29.88F WCI  20
BOWLING GREEN  LGT SNOW  24  19  81 NW7       29.87F WCI  16
GLASGOW        NOT AVBL
$$

KYZ024-025-028>034-038-045-046-053-090700-
NORTH CENTRAL KENTUCKY

CITY           SKY/WX    TMP DP  RH WIND       PRES   REMARKS
LOUISVILLE/SDF FLURRIES  23  14  68 NW12      29.82S WCI  12
LOUISVILLE/LOU CLOUDY    22  13  68 W16       29.82S WCI   8
FORT KNOX      FLURRIES  21  15  79 W8        29.80S WCI  11
$$

KYZ035>037-039>044-047>052-055>060-089>105-090700-
NORTHEAST KENTUCKY

CITY           SKY/WX    TMP DP  RH WIND       PRES   REMARKS
LEXINGTON      CLOUDY    22  17  81 W14       29.75S WCI   9
COVINGTON      FLURRIES  22  17  81 W15       29.73S WCI   9
FRANKFORT      CLOUDY    22  16  78 W10G18    29.77R WCI  11
$$

KYZ054-064>069-076>088-106>120-090700-
SOUTHEAST KENTUCKY

CITY           SKY/WX    TMP DP  RH WIND       PRES   REMARKS
JACKSON        CLOUDY    26  20  77 W9G17     29.70F WCI  17
LONDON         CLOUDY    26  20  77 W13       29.75S WCI  15
SOMERSET       NOT AVBL
MIDDLESBORO    NOT AVBL
MONTICELLO     LGT SNOW  24  20  84 NW18      29.81S FOG     WCI  10
$$




USA.gov is the U.S. government's official web portal to all federal, state and local government web resources and services.